Terug naar catalogus

GLOBALSTAR M067

ActiefCommunicatieLEO
NORAD 32263·PAYLOAD·🇺🇸 United States

Gelanceerd Oct 20, 2007 vanaf Baikonur Cosmodrome

Loading…

Volgende Passages (komende 24 uur)

TLE

VersSource: Space-Track

Epoch: Sep 14, 2026, 22:31 UTC

1 32263U 07048A   26257.93845959 -.00000103  00000-0 -39844-4 0  9997
2 32263  51.9720 145.2622 0000460 200.1664 186.2153 12.40692437865938

Volg GLOBALSTAR M067 in realtime met AllMySat

Download on the App Store